EST,Max TemperatureF,Mean TemperatureF,Min TemperatureF,Max Dew PointF,MeanDew PointF,Min DewpointF,Max Humidity, Mean Humidity, Min Humidity, Max Sea Level PressureIn, Mean Sea Level PressureIn, Min Sea Level PressureIn, Max VisibilityMiles, Mean VisibilityMiles, Min VisibilityMiles, Max Wind SpeedMPH, Mean Wind SpeedMPH, Max Gust SpeedMPH,PrecipitationIn, CloudCover, Events, WindDirDegrees
2012-12-1,45,38,33,39,31,13,87,76,27,30.57,30.50,30.44,10,8,7,15,11,22,0.00,8,Rain,44
2012-12-2,53,42,32,50,44,23,100,91,65,30.43,30.26,30.10,7,5,1,13,6,21,0.00,5,Rain,243
2012-12-3,60,48,37,52,45,35,100,85,49,30.29,30.15,30.08,10,6,2,14,8,20,0.00,3,Rain,283
2012-12-4,55,44,33,55,48,32,100,97,86,30.31,30.19,30.02,6,4,2,12,4,17,0.04,6,Rain,163
2012-12-5,55,45,35,54,40,19,100,73,43,30.16,29.98,29.90,10,8,4,22,9,34,0.00,4,Rain,296
2012-12-6,37,30,24,22,19,14,88,67,48,30.34,30.28,30.19,10,9,7,13,8,21,0.00,0,,350
2012-12-7,46,35,24,46,37,21,100,87,67,30.29,30.15,30.05,10,7,4,10,3,,0.00,8,Rain,294
2012-12-8,53,48,42,52,45,19,100,91,32,30.03,29.92,29.85,7,4,1,9,3,,0.10,8,Rain,309
2012-12-9,50,46,41,48,41,35,100,86,57,30.25,30.15,29.99,10,5,0,16,6,26,0.00,6,Fog-Rain,21
2012-12-10,57,52,48,55,51,46,100,97,88,30.02,29.75,29.54,6,2,0,17,10,128,0.87,8,Fog-Rain,216
2012-12-11,55,46,36,49,32,22,100,63,46,30.18,29.85,29.56,10,9,1,17,9,23,0.00,5,Rain,327
2012-12-12,37,30,23,26,22,20,100,70,50,30.43,30.34,30.18,10,10,7,13,8,,0.00,0,,345
2012-12-13,44,34,23,27,24,22,100,82,45,30.47,30.40,30.32,10,8,6,9,5,,0.00,0,,8
2012-12-14,46,35,24,32,27,21,92,74,50,30.30,30.20,30.11,8,6,3,18,4,25,0.00,0,,273
2012-12-15,46,36,27,30,27,25,92,71,42,30.31,30.27,30.20,10,8,5,10,3,,0.00,0,,46
2012-12-16,42,40,37,39,35,28,93,84,68,30.27,30.10,29.98,10,4,2,20,13,31,0.03,8,Rain,68
2012-12-17,46,42,39,45,42,37,93,90,86,29.97,29.86,29.70,10,7,2,18,13,25,0.02,8,Rain,46
2012-12-18,50,48,46,48,45,38,96,91,73,29.67,29.52,29.45,10,5,1,18,9,23,0.41,8,Rain,351
2012-12-19,48,44,41,37,31,28,76,61,48,29.77,29.62,29.51,10,10,10,24,16,33,0.00,3,,308
2012-12-20,44,43,42,38,34,32,82,71,65,30.12,30.07,29.96,10,10,8,14,10,,0.00,7,Rain,113
2012-12-21,55,47,39,54,42,28,100,83,62,29.95,29.38,29.09,10,7,1,39,21,60,0.48,8,Rain,162
2012-12-22,41,38,35,34,24,15,86,60,39,29.72,29.46,29.29,10,10,7,28,17,39,0.00,8,Rain,283
2012-12-23,41,38,35,27,21,17,65,52,43,29.91,29.86,29.75,10,10,10,15,10,22,0.00,4,,270
2012-12-24,39,32,25,31,22,17,96,62,45,30.08,30.02,29.92,10,9,2,12,6,,0.00,2,Snow,339
2012-12-25,37,34,28,35,32,20,100,91,69,30.23,30.03,29.93,10,6,1,15,9,22,0.00,6,Rain,360
2012-12-26,36,30,24,35,27,14,100,80,58,30.28,30.07,29.68,10,7,0,26,13,36,0.12,5,Fog-Rain-Snow,49
2012-12-27,46,40,32,46,39,25,100,92,75,29.69,29.36,29.22,10,5,1,30,20,50,0.39,8,Rain,4
2012-12-28,37,32,28,23,20,17,78,64,51,30.05,29.92,29.72,10,10,10,20,14,29,0.00,2,,313
2012-12-29,37,32,26,32,30,22,100,92,75,30.03,29.59,29.36,10,4,0,18,9,24,0.12,7,Fog-Rain-Snow,8
2012-12-30,33,29,25,30,18,8,93,66,45,30.06,29.75,29.47,10,8,3,25,16,39,0.00,2,Snow,311
2012-12-31,39,30,23,27,19,9,70,59,53,30.11,30.00,29.83,10,10,8,21,11,28,0.00,3,,270